sat.trackr.live / text

‹ back to catalog

STARLINK-31907

NORAD 59797 · 2024-093R

PAYLOAD ACTIVE UNKNOWN

§ Identity

Operator
Country
US
Launch date
2024-05-18
Launch site
AFETR
Launch vehicle
Mass (kg)
RCS (m²)

Purposes: comms

External: N2YO · Heavens-Above · Gunter

§ Orbital elements

Epoch: 2026-05-24T11:07:59.333952Z

Period
94.27 min
Inclination
43.0016°
Eccentricity
0.0001139
Mean motion
15.27577789 rev/d
Perigee alt
482.3 km
Apogee alt
483.8 km
Semi-major
6,861.2 km
B*
2.4354e-5
RAAN
140.9992°
Arg perigee
266.1313°
Mean anomaly
93.9409°
Rev number
11,428

§ Raw data

STARLINK-319071 59797U 24093R   26144.46388118  .00000408  00000+0  24354-4 0  99942 59797  43.0016 140.9992 0001139 266.1313  93.9409 15.27577789114281

JSON: /api/v1/satellites/59797 · /tle

For live sub-satellite position, see the globe view (requires WebGL).

§ Visibility from observer

Set your observer location to see the next 7 days of passes ≥ 10°. The values pass through the URL so the page stays shareable.

No JS? Fill the form by hand. The geolocation button needs JavaScript.